EW4196 Weather Reports


Display with metric or nautical units.
time (UTC)temp
F
wind
direction
speed
MPH
gust
MPH
rain 1hr
in
rain 24hr
in
rain mn
in
humidity
%
barometer
mb
20260508121606 54 144 0.0 0.0 0.00 0.00 0.00 85 1013.2
20260508120105 54 145 0.0 0.0 0.00 0.00 0.00 84 1013.2
20260508114558 54 136 0.0 1.0 0.00 0.00 0.00 84 1013.0
20260508113059 54 101 0.0 1.0 0.00 0.00 0.00 83 1012.9
20260508111603 54 130 0.0 0.0 0.00 0.00 0.00 84 1012.7
20260508104600 53 96 0.0 0.0 0.00 0.00 0.00 83 1012.4
20260508103100 53 96 0.0 0.0 0.00 0.00 0.00 83 1012.3
20260508101555 52 174 0.0 1.0 0.00 0.00 0.00 85 1012.3
20260508100052 51 107 0.0 2.0 0.00 0.00 0.00 85 1012.2
20260508094552 51 94 0.0 0.0 0.00 0.00 0.00 85 1012.2
20260508093052 50 94 0.0 0.0 0.00 0.00 0.00 87 1012.1
20260508091602 49 94 0.0 0.0 0.00 0.00 0.00 87 1012.1
20260508090050 49 94 0.0 0.0 0.00 0.00 0.00 87 1012.1
20260508084557 49 94 0.0 0.0 0.00 0.00 0.00 86 1012.2
20260508083055 49 94 0.0 0.0 0.00 0.00 0.00 86 1012.3
20260508081549 49 94 0.0 0.0 0.00 0.00 0.00 86 1012.3
20260508074542 49 94 0.0 0.0 0.00 0.00 0.00 84 1012.7
20260508073049 50 94 0.0 0.0 0.00 0.00 0.00 84 1012.8
20260508071537 50 94 0.0 0.0 0.00 0.00 0.00 84 1013.0
20260508070034 51 94 0.0 0.0 0.00 0.00 0.00 83 1013.3
20260508064542 51 94 0.0 0.0 0.00 0.00 0.00 82 1013.4
20260508063031 52 94 0.0 0.0 0.00 0.00 0.00 81 1013.5
20260508061532 52 94 0.0 0.0 0.00 0.00 0.00 80 1013.5
20260508060025 53 94 0.0 0.0 0.00 0.00 0.00 78 1013.6
20260508054537 53 94 0.0 0.0 0.00 0.00 0.00 77 1013.5
20260508053021 54 94 0.0 0.0 0.00 0.00 0.00 76 1013.4
20260508051516 55 94 0.0 0.0 0.00 0.00 0.00 74 1013.5
20260508050015 55 94 0.0 0.0 0.00 0.00 0.00 72 1013.6
20260508044611 55 94 0.0 0.0 0.00 0.00 0.00 71 1013.5
20260508043012 56 94 0.0 0.0 0.00 0.00 0.00 67 1013.7
20260508041510 57 94 0.0 0.0 0.00 0.00 0.00 65 1013.8
20260508040032 59 94 0.0 0.0 0.00 0.00 0.00 64 1013.7
20260508034510 60 94 0.0 0.0 0.00 0.00 0.00 62 1013.7
20260508033009 60 101 0.0 1.0 0.00 0.00 0.00 61 1013.9
20260508031514 60 101 0.0 0.0 0.00 0.00 0.00 60 1013.7
20260508030008 61 101 0.0 0.0 0.00 0.00 0.00 55 1013.7
20260508024518 62 101 0.0 0.0 0.00 0.00 0.00 55 1013.6
20260508023010 62 101 0.0 0.0 0.00 0.00 0.00 53 1013.5
20260508021505 63 101 0.0 0.0 0.00 0.00 0.00 51 1013.4
20260508020005 64 101 0.0 0.0 0.00 0.00 0.00 50 1013.4
20260508014505 65 101 0.0 0.0 0.00 0.00 0.00 48 1013.2
20260508013005 66 101 0.0 1.0 0.00 0.00 0.00 45 1013.1
20260508011504 68 101 0.0 1.0 0.00 0.00 0.00 43 1012.9
20260508010005 69 97 0.0 1.0 0.00 0.00 0.00 41 1012.6
20260508004503 70 134 0.0 2.0 0.00 0.00 0.00 39 1012.6
20260508003002 71 94 0.0 4.0 0.00 0.00 0.00 38 1012.7
20260508001500 72 130 0.0 3.0 0.00 0.00 0.00 37 1012.7
20260507234602 73 131 1.0 3.0 0.00 0.00 0.00 36 1013.0
20260507233116 74 114 1.0 3.0 0.00 0.00 0.00 35 1013.0
20260507231553 75 139 0.0 3.0 0.00 0.00 0.00 34 1013.3
20260507230054 77 134 1.0 4.0 0.00 0.00 0.00 32 1013.3
20260507224552 77 134 0.0 5.0 0.00 0.00 0.00 32 1013.4
20260507223101 76 127 1.0 3.0 0.00 0.00 0.00 33 1013.5
20260507221549 77 133 0.0 4.0 0.00 0.00 0.00 32 1013.6
20260507220046 77 102 0.0 3.0 0.00 0.00 0.00 32 1013.8
20260507214546 76 143 0.0 3.0 0.00 0.00 0.00 33 1013.9
20260507213043 75 141 0.0 4.0 0.00 0.00 0.00 33 1014.2
20260507211547 75 148 0.0 4.0 0.00 0.00 0.00 33 1014.3
20260507210052 75 148 1.0 5.0 0.00 0.00 0.00 34 1014.7
20260507204538 75 145 0.0 1.0 0.00 0.00 0.00 35 1014.9
20260507203031 75 140 1.0 5.0 0.00 0.00 0.00 35 1015.3
20260507201529 75 146 1.0 4.0 0.00 0.00 0.00 32 1015.3
20260507200026 73 145 0.0 3.0 0.00 0.00 0.00 38 1015.4
20260507194534 73 111 0.0 3.0 0.00 0.00 0.00 35 1015.8
20260507193022 74 129 0.0 3.0 0.00 0.00 0.00 34 1016.0
20260507191519 74 139 1.0 3.0 0.00 0.00 0.00 35 1016.3
20260507190020 74 147 0.0 3.0 0.00 0.00 0.00 35 1016.4
20260507184514 73 129 0.0 3.0 0.00 0.00 0.00 36 1016.8
20260507183017 73 123 1.0 5.0 0.00 0.00 0.00 37 1016.9
20260507181508 73 96 0.0 3.0 0.00 0.00 0.00 37 1017.1
20260507180005 72 134 2.0 6.0 0.00 0.00 0.00 37 1017.3
20260507174509 70 103 1.0 7.0 0.00 0.00 0.00 38 1017.6
20260507173120 71 125 0.0 4.0 0.00 0.00 0.00 38 1017.8
20260507171558 70 146 0.0 3.0 0.00 0.00 0.00 38 1018.1
20260507170057 70 134 0.0 4.0 0.00 0.00 0.00 38 1018.3
20260507164627 70 136 0.0 3.0 0.00 0.00 0.00 39 1018.6
20260507163054 68 101 0.0 4.0 0.00 0.00 0.00 39 1018.7
20260507161556 69 123 0.0 2.0 0.00 0.00 0.00 40 1018.9
20260507160049 69 147 0.0 3.0 0.00 0.00 0.00 39 1019.0
20260507154548 68 176 0.0 2.0 0.00 0.00 0.00 42 1019.1
20260507153044 66 149 0.0 4.0 0.00 0.00 0.00 43 1019.3
20260507151540 65 96 0.0 2.0 0.00 0.00 0.00 44 1019.6
20260507150038 64 134 0.0 4.0 0.00 0.00 0.00 43 1019.8
20260507144537 62 100 0.0 1.0 0.00 0.00 0.00 55 1020.0
20260507143029 59 134 0.0 0.0 0.00 0.00 0.00 60 1020.0
20260507141523 55 136 0.0 0.0 0.00 0.00 0.00 69 1019.9
20260507140021 53 139 0.0 0.0 0.00 0.00 0.00 79 1019.9
20260507134516 50 150 0.0 0.0 0.00 0.00 0.00 85 1019.9
20260507133015 48 150 0.0 0.0 0.00 0.00 0.00 90 1019.8
20260507131518 47 151 0.0 0.0 0.00 0.00 0.00 92 1019.8
20260507130012 45 150 0.0 0.0 0.00 0.00 0.00 93 1019.7
20260507124513 44 151 0.0 0.0 0.00 0.00 0.00 93 1019.6
20260507123009 43 150 0.0 0.0 0.00 0.00 0.00 93 1019.6